sat.trackr.live / text

‹ back to catalog

STARLINK-6163

NORAD 57128 · 2023-090AD

PAYLOAD ACTIVE UNKNOWN

§ Identity

Operator
Country
US
Launch date
2023-06-23
Launch site
AFETR
Launch vehicle
Mass (kg)
RCS (m²)

Purposes: comms

External: N2YO · Heavens-Above · Gunter

§ Orbital elements

Epoch: 2026-09-20T11:05:10.104000Z

Period
94.27 min
Inclination
43.0024°
Eccentricity
0.0001354
Mean motion
15.27569299 rev/d
Perigee alt
482.2 km
Apogee alt
484.0 km
Semi-major
6,861.2 km
B*
-1.3179e-5
RAAN
261.2859°
Arg perigee
251.9299°
Mean anomaly
108.1405°
Rev number
17,993

§ Raw data

STARLINK-61631 57128U 23090AD  26263.46192250 -.00000625  00000+0 -13179-4 0  99942 57128  43.0024 261.2859 0001354 251.9299 108.1405 15.27569299179934

JSON: /api/v1/satellites/57128 · /tle

For live sub-satellite position, see the globe view (requires WebGL).

§ Visibility from observer

Set your observer location to see the next 7 days of passes ≥ 10°. The values pass through the URL so the page stays shareable.

No JS? Fill the form by hand. The geolocation button needs JavaScript.